20-02-2022, 00:00:00,    189,    0.3,    5.9,   0.00,   0.00, 1006.6,   84.1, -999.0
20-02-2022, 00:00:09,    188,    0.5,    5.8,   0.00,   0.00, 1006.5,   83.9, -999.0
20-02-2022, 00:00:19,    191,    2.0,    5.9,   0.00,   0.00, 1006.6,   84.1, -999.0
20-02-2022, 00:00:30,    211,    1.2,    5.9,   0.00,   0.00, 1006.6,   84.1, -999.0
20-02-2022, 00:00:39,    251,    0.1,    5.8,   0.00,   0.00, 1006.5,   83.7, -999.0
20-02-2022, 00:00:49,    251,    0.2,    5.8,   0.00,   0.00, 1006.5,   83.9, -999.0
20-02-2022, 00:00:59,    249,    0.0,    5.8,   0.00,   0.00, 1006.5,   83.8, -999.0
20-02-2022, 00:01:09,    188,    0.3,    5.9,   0.00,   0.00, 1006.6,   83.9, -999.0
20-02-2022, 00:01:19,    203,    1.8,    5.9,   0.00,   0.00, 1006.6,   84.1, -999.0
20-02-2022, 00:01:29,    174,    0.4,    5.9,   0.00,   0.00, 1006.6,   83.9, -999.0
20-02-2022, 00:01:39,    174,    0.0,    5.8,   0.00,   0.00, 1006.5,   83.8, -999.0
20-02-2022, 00:01:49,    208,    0.3,    5.8,   0.00,   0.00, 1006.5,   83.7, -999.0
20-02-2022, 00:01:59,    231,    4.7,    5.9,   0.00,   0.00, 1006.7,   84.1, -999.0
20-02-2022, 00:02:09,    222,    2.6,    5.9,   0.00,   0.00, 1006.6,   84.0, -999.0
20-02-2022, 00:02:19,    202,    0.3,    5.8,   0.00,   0.00, 1006.6,   83.9, -999.0
20-02-2022, 00:02:29,    182,    1.0,    5.9,   0.00,   0.00, 1006.6,   84.0, -999.0
20-02-2022, 00:02:39,    176,    0.7,    5.8,   0.00,   0.00, 1006.6,   84.0, -999.0
20-02-2022, 00:02:49,    242,    0.3,    5.8,   0.00,   0.00, 1006.6,   84.1, -999.0
20-02-2022, 00:02:59,    226,    0.3,    5.7,   0.00,   0.00, 1006.5,   83.9, -999.0
20-02-2022, 00:03:09,    193,    0.8,    5.8,   0.00,   0.00, 1006.6,   84.0, -999.0
20-02-2022, 00:03:18,    220,    2.6,    5.9,   0.00,   0.00, 1006.6,   84.0, -999.0
20-02-2022, 00:03:29,    219,    2.1,    5.9,   0.00,   0.00, 1006.6,   84.1, -999.0
20-02-2022, 00:03:39,    168,    2.0,    5.9,   0.00,   0.00, 1006.6,   84.2, -999.0
20-02-2022, 00:03:48,    236,    1.7,    5.9,   0.00,   0.00, 1006.6,   84.2, -999.0
20-02-2022, 00:03:58,    207,    2.4,    5.9,   0.00,   0.00, 1006.6,   84.2, -999.0
20-02-2022, 00:04:09,    163,    1.3,    5.9,   0.00,   0.00, 1006.6,   84.2, -999.0
20-02-2022, 00:04:18,    196,    1.1,    5.9,   0.00,   0.00, 1006.6,   84.3, -999.0
20-02-2022, 00:04:28,    219,    2.8,    5.9,   0.00,   0.00, 1006.6,   84.4, -999.0
20-02-2022, 00:04:38,    252,    2.1,    5.8,   0.00,   0.00, 1006.7,   84.3, -999.0
20-02-2022, 00:04:48,    170,    0.7,    5.9,   0.00,   0.00, 1006.6,   84.3, -999.0
20-02-2022, 00:04:58,    220,    1.9,    5.9,   0.00,   0.00, 1006.6,   84.1, -999.0
20-02-2022, 00:05:08,    197,    4.5,    5.8,   0.00,   0.00, 1006.6,   84.4, -999.0
20-02-2022, 00:05:18,    210,    1.8,    5.9,   0.00,   0.00, 1006.6,   84.4, -999.0
20-02-2022, 00:05:28,    203,    2.2,    5.8,   0.00,   0.00, 1006.6,   84.4, -999.0
20-02-2022, 00:05:38,    213,    2.1,    5.8,   0.00,   0.00, 1006.6,   84.4, -999.0
20-02-2022, 00:05:48,    239,    2.4,    5.9,   0.00,   0.00, 1006.7,   84.5, -999.0
20-02-2022, 00:05:58,    222,    1.7,    5.9,   0.00,   0.00, 1006.6,   84.4, -999.0
20-02-2022, 00:06:08,    234,    1.0,    5.9,   0.00,   0.00, 1006.6,   84.6, -999.0
20-02-2022, 00:06:18,    209,    0.9,    5.8,   0.00,   0.00, 1006.6,   84.5, -999.0
20-02-2022, 00:06:28,    206,    0.4,    5.8,   0.00,   0.00, 1006.6,   84.5, -999.0
20-02-2022, 00:06:38,    269,    2.4,    5.8,   0.00,   0.00, 1006.6,   84.7, -999.0
20-02-2022, 00:06:48,    181,    0.9,    5.9,   0.00,   0.00, 1006.6,   84.6, -999.0
20-02-2022, 00:06:57,    188,    0.1,    5.8,   0.00,   0.00, 1006.5,   84.6, -999.0
20-02-2022, 00:07:07,    186,    0.1,    5.9,   0.00,   0.00, 1006.6,   84.5, -999.0
20-02-2022, 00:07:18,    212,    1.4,    5.8,   0.00,   0.00, 1006.6,   84.7, -999.0
20-02-2022, 00:07:27,    218,    1.4,    5.9,   0.00,   0.00, 1006.6,   84.7, -999.0
20-02-2022, 00:07:37,    190,    0.2,    5.9,   0.00,   0.00, 1006.5,   84.7, -999.0
20-02-2022, 00:07:47,    206,    3.7,    5.9,   0.00,   0.00, 1006.6,   84.9, -999.0
20-02-2022, 00:07:57,    206,    3.8,    5.9,   0.00,   0.00, 1006.6,   85.0, -999.0
20-02-2022, 00:08:07,    211,    1.0,    5.8,   0.00,   0.00, 1006.6,   85.1, -999.0
20-02-2022, 00:08:17,    182,    1.7,    5.9,   0.00,   0.00, 1006.6,   85.0, -999.0
20-02-2022, 00:08:27,    251,    0.6,    5.9,   0.00,   0.00, 1006.6,   85.0, -999.0
20-02-2022, 00:08:37,    205,    3.2,    5.9,   0.00,   0.00, 1006.6,   85.2, -999.0
20-02-2022, 00:08:47,    223,    1.3,    5.8,   0.00,   0.00, 1006.6,   85.1, -999.0
20-02-2022, 00:08:57,    172,    0.9,    5.9,   0.00,   0.00, 1006.6,   85.0, -999.0
20-02-2022, 00:09:07,    139,    0.5,    5.9,   0.00,   0.00, 1006.6,   85.0, -999.0
20-02-2022, 00:09:17,    216,    1.0,    5.9,   0.00,   0.00, 1006.6,   85.0, -999.0
20-02-2022, 00:09:27,    202,    2.0,    5.9,   0.00,   0.00, 1006.6,   85.2, -999.0
20-02-2022, 00:09:37,    186,    0.4,    5.8,   0.00,   0.00, 1006.6,   85.1, -999.0
20-02-2022, 00:09:47,    233,    0.8,    5.8,   0.00,   0.00, 1006.6,   85.2, -999.0
20-02-2022, 00:09:57,    212,    0.7,    5.8,   0.00,   0.00, 1006.6,   85.1, -999.0
20-02-2022, 00:10:06,    257,    1.5,    5.9,   0.00,   0.00, 1006.6,   85.2, -999.0
20-02-2022, 00:10:17,    209,    5.0,    5.9,   0.00,   0.00, 1006.6,   85.3, -999.0
20-02-2022, 00:10:27,    203,    3.5,    5.8,   0.00,   0.00, 1006.6,   85.5, -999.0
20-02-2022, 00:10:36,    265,    1.9,    5.8,   0.00,   0.00, 1006.6,   85.5, -999.0
20-02-2022, 00:10:46,    202,    2.9,    5.9,   0.00,   0.00, 1006.6,   85.7, -999.0
20-02-2022, 00:10:57,    221,    1.4,    5.9,   0.00,   0.00, 1006.6,   85.7, -999.0
20-02-2022, 00:11:06,    212,    0.3,    5.9,   0.00,   0.00, 1006.6,   85.5, -999.0
20-02-2022, 00:11:16,    200,    0.2,    5.8,   0.00,   0.00, 1006.6,   85.6, -999.0
20-02-2022, 00:11:26,    206,    2.2,    5.8,   0.00,   0.00, 1006.6,   85.6, -999.0
20-02-2022, 00:11:36,    226,    1.8,    5.9,   0.00,   0.00, 1006.5,   85.7, -999.0
20-02-2022, 00:11:46,    199,    0.5,    5.9,   0.00,   0.00, 1006.5,   85.7, -999.0
20-02-2022, 00:11:56,    200,    2.1,    5.9,   0.00,   0.00, 1006.6,   85.7, -999.0
20-02-2022, 00:12:06,    184,    1.9,    5.9,   0.00,   0.00, 1006.6,   85.8, -999.0
20-02-2022, 00:12:16,    248,    1.2,    5.9,   0.00,   0.00, 1006.6,   85.8, -999.0
20-02-2022, 00:12:26,    237,    3.3,    5.8,   0.00,   0.00, 1006.6,   85.8, -999.0
20-02-2022, 00:12:36,    198,    1.8,    5.8,   0.00,   0.00, 1006.6,   86.0, -999.0
20-02-2022, 00:12:46,    221,    3.4,    5.9,   0.00,   0.00, 1006.5,   86.0, -999.0
20-02-2022, 00:12:56,    178,    2.8,    5.9,   0.00,   0.00, 1006.5,   86.1, -999.0
20-02-2022, 00:13:06,    195,    0.6,    5.8,   0.00,   0.00, 1006.5,   86.0, -999.0
20-02-2022, 00:13:15,    186,    3.5,    5.8,   0.00,   0.00, 1006.6,   86.2, -999.0
20-02-2022, 00:13:26,    190,    3.4,    5.9,   0.00,   0.00, 1006.6,   86.3, -999.0
20-02-2022, 00:13:36,    198,    1.5,    5.9,   0.00,   0.00, 1006.5,   86.3, -999.0
20-02-2022, 00:13:45,    177,    1.3,    5.8,   0.00,   0.00, 1006.5,   86.4, -999.0
20-02-2022, 00:13:55,    190,    5.1,    5.9,   0.00,   0.00, 1006.5,   86.4, -999.0
20-02-2022, 00:14:06,    222,    3.4,    5.9,   0.00,   0.00, 1006.5,   86.6, -999.0
20-02-2022, 00:14:15,    238,    2.9,    5.8,   0.00,   0.00, 1006.5,   86.7, -999.0
20-02-2022, 00:14:25,    233,    2.8,    5.7,   0.00,   0.00, 1006.5,   86.7, -999.0
20-02-2022, 00:14:36,    204,    1.8,    5.8,   0.00,   0.00, 1006.5,   86.6, -999.0
20-02-2022, 00:14:45,    238,    1.7,    5.8,   0.00,   0.00, 1006.5,   86.7, -999.0
20-02-2022, 00:14:55,    177,    2.0,    5.8,   0.00,   0.00, 1006.5,   86.9, -999.0
20-02-2022, 00:15:05,    165,    1.0,    5.8,   0.00,   0.00, 1006.5,   86.9, -999.0
20-02-2022, 00:15:15,    208,    1.9,    5.8,   0.00,   0.00, 1006.5,   86.9, -999.0
20-02-2022, 00:15:25,    256,    2.1,    5.8,   0.00,   0.00, 1006.5,   87.0, -999.0
20-02-2022, 00:15:35,    222,    3.0,    5.8,   0.00,   0.00, 1006.5,   87.1, -999.0
20-02-2022, 00:15:45,    208,    1.2,    5.8,   0.00,   0.00, 1006.5,   87.0, -999.0
20-02-2022, 00:15:55,    195,    3.0,    5.8,   0.00,   0.00, 1006.5,   87.2, -999.0
20-02-2022, 00:16:05,    211,    1.8,    5.8,   0.00,   0.00, 1006.5,   87.3, -999.0
20-02-2022, 00:16:15,    189,    2.0,    5.8,   0.00,   0.00, 1006.5,   87.3, -999.0
20-02-2022, 00:16:25,    203,    2.2,    5.8,   0.00,   0.00, 1006.4,   87.3, -999.0
20-02-2022, 00:16:35,    193,    2.0,    5.7,   0.00,   0.00, 1006.5,   87.4, -999.0
20-02-2022, 00:16:45,    211,    2.0,    5.7,   0.00,   0.00, 1006.5,   87.4, -999.0
20-02-2022, 00:16:54,    201,    3.8,    5.7,   0.00,   0.00, 1006.5,   87.6, -999.0
20-02-2022, 00:17:05,    238,    2.4,    5.8,   0.00,   0.00, 1006.5,   87.6, -999.0
20-02-2022, 00:17:15,    155,    1.2,    5.8,   0.00,   0.00, 1006.5,   87.6, -999.0
20-02-2022, 00:17:24,    209,    3.0,    5.7,   0.00,   0.00, 1006.5,   87.6, -999.0
20-02-2022, 00:17:34,    195,    4.8,    5.7,   0.00,   0.00, 1006.4,   87.8, -999.0
20-02-2022, 00:17:45,    171,    1.0,    5.7,   0.00,   0.00, 1006.4,   87.9, -999.0
20-02-2022, 00:17:54,    214,    1.1,    5.7,   0.00,   0.00, 1006.4,   87.9, -999.0
20-02-2022, 00:18:04,    232,    2.9,    5.7,   0.00,   0.00, 1006.4,   87.9, -999.0
20-02-2022, 00:18:14,    173,    1.4,    5.8,   0.00,   0.00, 1006.4,   88.0, -999.0
20-02-2022, 00:18:24,    169,    0.7,    5.8,   0.00,   0.00, 1006.4,   88.0, -999.0
20-02-2022, 00:18:34,    188,    0.7,    5.8,   0.00,   0.00, 1006.4,   88.2, -999.0
20-02-2022, 00:18:44,    247,    2.5,    5.5,   0.00,   0.00, 1006.5,   88.2, -999.0
20-02-2022, 00:18:54,    196,    2.8,    5.7,   0.00,   0.00, 1006.5,   88.3, -999.0
20-02-2022, 00:19:04,    218,    4.8,    5.6,   0.00,   0.00, 1006.5,   88.3, -999.0
20-02-2022, 00:19:14,    163,    1.8,    5.7,   0.00,   0.00, 1006.4,   88.3, -999.0
20-02-2022, 00:19:24,    204,    3.1,    5.7,   0.00,   0.00, 1006.4,   88.4, -999.0
20-02-2022, 00:19:34,    247,    2.4,    5.7,   0.00,   0.00, 1006.5,   88.4, -999.0
20-02-2022, 00:19:44,    246,    0.0,    5.6,   0.00,   0.00, 1006.3,   88.2, -999.0
20-02-2022, 00:19:54,    253,    0.9,    5.7,   0.00,   0.00, 1006.4,   88.4, -999.0
20-02-2022, 00:20:03,    227,    2.4,    5.7,   0.00,   0.00, 1006.4,   88.6, -999.0
20-02-2022, 00:20:14,    217,    1.5,    5.7,   0.00,   0.00, 1006.5,   88.6, -999.0
20-02-2022, 00:20:24,    204,    1.6,    5.7,   0.00,   0.00, 1006.4,   88.6, -999.0
20-02-2022, 00:20:33,    200,    3.5,    5.7,   0.00,   0.00, 1006.5,   88.7, -999.0
20-02-2022, 00:20:44,    224,    3.6,    5.7,   0.00,   0.00, 1006.4,   88.8, -999.0
20-02-2022, 00:20:54,    254,    5.5,    5.7,   0.00,   0.00, 1006.4,   88.9, -999.0
20-02-2022, 00:21:03,    211,    2.0,    5.7,   0.00,   0.00, 1006.4,   88.8, -999.0
20-02-2022, 00:21:13,    218,    1.0,    5.7,   0.00,   0.00, 1006.4,   88.9, -999.0
20-02-2022, 00:21:24,    192,    0.3,    5.6,   0.00,   0.00, 1006.4,   88.8, -999.0
20-02-2022, 00:21:33,    199,    0.6,    5.6,   0.00,   0.00, 1006.5,   88.9, -999.0
20-02-2022, 00:21:43,    233,    1.0,    5.6,   0.00,   0.00, 1006.4,   88.9, -999.0
20-02-2022, 00:21:53,    145,    2.4,    5.6,   0.00,   0.00, 1006.4,   89.0, -999.0
20-02-2022, 00:22:03,    186,    2.2,    5.6,   0.00,   0.00, 1006.4,   89.1, -999.0
20-02-2022, 00:22:13,    215,    1.7,    5.7,   0.00,   0.00, 1006.4,   89.1, -999.0
20-02-2022, 00:22:23,    220,    3.8,    5.7,   0.00,   0.00, 1006.4,   89.1, -999.0
20-02-2022, 00:22:33,    186,    1.8,    5.6,   0.00,   0.00, 1006.4,   89.2, -999.0
20-02-2022, 00:22:43,    221,    2.7,    5.6,   0.00,   0.00, 1006.4,   89.3, -999.0
20-02-2022, 00:22:53,    188,    1.5,    5.7,   0.00,   0.00, 1006.5,   89.3, -999.0
20-02-2022, 00:23:03,    231,    3.4,    5.6,   0.00,   0.00, 1006.4,   89.4, -999.0
20-02-2022, 00:23:13,    187,    1.9,    5.6,   0.00,   0.00, 1006.4,   89.5, -999.0
20-02-2022, 00:23:23,    203,    3.3,    5.6,   0.00,   0.00, 1006.5,   89.5, -999.0
20-02-2022, 00:23:33,    208,    2.2,    5.6,   0.00,   0.00, 1006.5,   89.5, -999.0
20-02-2022, 00:23:42,    218,    1.5,    5.6,   0.00,   0.00, 1006.4,   89.6, -999.0
20-02-2022, 00:23:53,    225,    2.3,    5.6,   0.00,   0.00, 1006.4,   89.6, -999.0
20-02-2022, 00:24:03,    213,    2.1,    5.6,   0.00,   0.00, 1006.4,   89.7, -999.0
20-02-2022, 00:24:12,    210,    4.4,    5.6,   0.00,   0.00, 1006.4,   89.7, -999.0
20-02-2022, 00:24:23,    200,    3.8,    5.6,   0.00,   0.00, 1006.4,   89.7, -999.0
20-02-2022, 00:24:33,    234,    5.0,    5.6,   0.00,   0.00, 1006.4,   90.0, -999.0
20-02-2022, 00:24:42,    203,    3.9,    5.6,   0.00,   0.00, 1006.4,   90.0, -999.0
20-02-2022, 00:24:52,    193,    4.3,    5.6,   0.00,   0.00, 1006.3,   90.1, -999.0
20-02-2022, 00:25:02,    252,    3.3,    5.6,   0.00,   0.00, 1006.4,   90.1, -999.0
20-02-2022, 00:25:12,    176,    2.5,    5.5,   0.00,   0.00, 1006.4,   90.1, -999.0
20-02-2022, 00:25:22,    188,    0.2,    5.5,   0.00,   0.00, 1006.3,   89.8, -999.0
20-02-2022, 00:25:32,    242,    5.0,    5.6,   0.00,   0.00, 1006.4,   90.1, -999.0
20-02-2022, 00:25:42,    210,    2.7,    5.6,   0.00,   0.00, 1006.4,   90.2, -999.0
20-02-2022, 00:25:52,    251,    0.8,    5.6,   0.00,   0.00, 1006.3,   90.1, -999.0
20-02-2022, 00:26:02,    217,    0.3,    5.6,   0.00,   0.00, 1006.3,   90.1, -999.0
20-02-2022, 00:26:12,    215,    2.9,    5.5,   0.00,   0.00, 1006.4,   90.2, -999.0
20-02-2022, 00:26:22,    198,    0.8,    5.6,   0.00,   0.00, 1006.3,   90.3, -999.0
20-02-2022, 00:26:32,    211,    0.8,    5.6,   0.00,   0.00, 1006.4,   90.2, -999.0
20-02-2022, 00:26:42,    266,    1.1,    5.6,   0.00,   0.00, 1006.4,   90.3, -999.0
20-02-2022, 00:26:52,    170,    1.2,    5.6,   0.00,   0.00, 1006.4,   90.4, -999.0
20-02-2022, 00:27:02,    213,    2.1,    5.7,   0.00,   0.00, 1006.4,   90.4, -999.0
20-02-2022, 00:27:12,    198,    2.9,    5.6,   0.00,   0.00, 1006.4,   90.4, -999.0
20-02-2022, 00:27:21,    155,    2.5,    5.6,   0.00,   0.00, 1006.3,   90.5, -999.0
20-02-2022, 00:27:32,    152,    0.8,    5.6,   0.00,   0.00, 1006.3,   90.5, -999.0
20-02-2022, 00:27:42,    149,    3.3,    5.6,   0.00,   0.00, 1006.3,   90.5, -999.0
20-02-2022, 00:27:51,    185,    2.0,    5.7,   0.00,   0.00, 1006.3,   90.7, -999.0
20-02-2022, 00:28:01,    214,    0.9,    5.6,   0.00,   0.00, 1006.3,   90.6, -999.0
20-02-2022, 00:28:11,    216,    2.6,    5.6,   0.00,   0.00, 1006.3,   90.7, -999.0
20-02-2022, 00:28:21,    191,    4.4,    5.6,   0.00,   0.00, 1006.3,   90.7, -999.0
20-02-2022, 00:28:31,    203,    2.3,    5.6,   0.00,   0.00, 1006.3,   90.6, -999.0
20-02-2022, 00:28:41,    191,    3.0,    5.6,   0.00,   0.00, 1006.3,   90.7, -999.0
20-02-2022, 00:28:51,    239,    4.2,    5.6,   0.00,   0.00, 1006.3,   90.8, -999.0
20-02-2022, 00:29:01,    199,    4.7,    5.6,   0.00,   0.00, 1006.3,   90.8, -999.0
20-02-2022, 00:29:11,    181,    2.7,    5.6,   0.00,   0.00, 1006.3,   90.8, -999.0
20-02-2022, 00:29:21,    288,    2.7,    5.6,   0.00,   0.00, 1006.3,   90.9, -999.0
20-02-2022, 00:29:33,    232,    5.3,    5.6,   0.00,   0.00, 1006.3,   90.9, -999.0
20-02-2022, 00:29:41,    242,    2.0,    5.7,   0.00,   0.00, 1006.4,   91.1, -999.0
20-02-2022, 00:29:51,    234,    3.3,    5.7,   0.00,   0.00, 1006.3,   91.0, -999.0
20-02-2022, 00:30:01,    241,    2.4,    5.6,   0.00,   0.00, 1006.3,   91.1, -999.0
20-02-2022, 00:30:11,    175,    2.2,    5.7,   0.00,   0.00, 1006.3,   91.1, -999.0
20-02-2022, 00:30:21,    218,    3.4,    5.7,   0.00,   0.00, 1006.3,   91.1, -999.0
20-02-2022, 00:30:31,    192,    1.5,    5.7,   0.00,   0.00, 1006.3,   91.1, -999.0
20-02-2022, 00:30:41,    209,    0.8,    5.7,   0.00,   0.00, 1006.3,   91.1, -999.0
20-02-2022, 00:30:51,    186,    1.6,    5.7,   0.00,   0.00, 1006.3,   91.1, -999.0
20-02-2022, 00:31:00,    238,    5.0,    5.7,   0.00,   0.00, 1006.3,   91.1, -999.0
20-02-2022, 00:31:11,    204,    5.7,    5.7,   0.00,   0.00, 1006.3,   91.3, -999.0
20-02-2022, 00:31:20,    170,    4.3,    5.7,   0.00,   0.00, 1006.3,   91.3, -999.0
20-02-2022, 00:31:30,    198,    1.2,    5.7,   0.00,   0.00, 1006.3,   91.3, -999.0
20-02-2022, 00:31:40,    177,    4.6,    5.7,   0.00,   0.00, 1006.3,   91.3, -999.0
20-02-2022, 00:31:50,    214,    3.6,    5.7,   0.00,   0.00, 1006.3,   91.3, -999.0
20-02-2022, 00:32:00,    207,    2.1,    5.7,   0.00,   0.00, 1006.4,   91.4, -999.0
20-02-2022, 00:32:10,    220,    4.3,    5.7,   0.00,   0.00, 1006.3,   91.4, -999.0
20-02-2022, 00:32:20,    202,    3.6,    5.6,   0.00,   0.00, 1006.3,   91.4, -999.0
20-02-2022, 00:32:30,    228,    3.2,    5.7,   0.00,   0.00, 1006.3,   91.5, -999.0
20-02-2022, 00:32:40,    221,    3.7,    5.7,   0.00,   0.00, 1006.3,   91.4, -999.0
20-02-2022, 00:32:50,    203,    2.5,    5.7,   0.00,   0.00, 1006.4,   91.5, -999.0
20-02-2022, 00:33:00,    219,    1.8,    5.6,   0.00,   0.00, 1006.3,   91.4, -999.0
20-02-2022, 00:33:10,    185,    0.6,    5.6,   0.00,   0.00, 1006.3,   91.3, -999.0
20-02-2022, 00:33:20,    201,    1.5,    5.7,   0.00,   0.00, 1006.3,   91.4, -999.0
20-02-2022, 00:33:30,    192,    2.5,    5.7,   0.00,   0.00, 1006.3,   91.5, -999.0
20-02-2022, 00:33:40,    206,    1.0,    5.7,   0.00,   0.00, 1006.3,   91.6, -999.0
20-02-2022, 00:33:50,    174,    2.5,    5.7,   0.00,   0.00, 1006.3,   91.5, -999.0
20-02-2022, 00:34:00,    219,    1.4,    5.7,   0.00,   0.00, 1006.3,   91.5, -999.0
20-02-2022, 00:34:09,    203,    4.7,    5.7,   0.00,   0.00, 1006.3,   91.5, -999.0
20-02-2022, 00:34:20,    182,    3.2,    5.7,   0.00,   0.00, 1006.3,   91.6, -999.0
20-02-2022, 00:34:30,    212,    5.0,    5.7,   0.00,   0.00, 1006.3,   91.6, -999.0
20-02-2022, 00:34:39,    236,    3.1,    5.6,   0.00,   0.00, 1006.3,   91.7, -999.0
20-02-2022, 00:34:49,    194,    0.4,    5.6,   0.00,   0.00, 1006.2,   91.5, -999.0
20-02-2022, 00:35:00,    215,    1.9,    5.7,   0.00,   0.00, 1006.3,   91.6, -999.0
20-02-2022, 00:35:09,    235,    1.6,    5.7,   0.00,   0.00, 1006.3,   91.6, -999.0
20-02-2022, 00:35:19,    187,    0.7,    5.7,   0.00,   0.00, 1006.2,   91.5, -999.0
20-02-2022, 00:35:29,    218,    3.1,    5.7,   0.00,   0.00, 1006.2,   91.6, -999.0
20-02-2022, 00:35:39,    221,    3.1,    5.7,   0.00,   0.00, 1006.3,   91.7, -999.0
20-02-2022, 00:35:49,    206,    2.0,    5.7,   0.00,   0.00, 1006.2,   91.7, -999.0
20-02-2022, 00:35:59,    184,    4.3,    5.7,   0.00,   0.00, 1006.3,   91.7, -999.0
20-02-2022, 00:36:09,    206,    1.7,    5.6,   0.00,   0.00, 1006.3,   91.8, -999.0
20-02-2022, 00:36:19,    192,    0.3,    5.6,   0.00,   0.00, 1006.2,   91.8, -999.0
20-02-2022, 00:36:29,    231,    2.0,    5.7,   0.00,   0.00, 1006.2,   91.6, -999.0
20-02-2022, 00:36:39,    208,    2.4,    5.7,   0.00,   0.00, 1006.3,   91.9, -999.0
20-02-2022, 00:36:49,    219,    1.8,    5.7,   0.00,   0.00, 1006.2,   91.9, -999.0
20-02-2022, 00:36:59,    251,    1.0,    5.7,   0.00,   0.00, 1006.2,   92.0, -999.0
20-02-2022, 00:37:09,    208,    3.3,    5.6,   0.00,   0.00, 1006.3,   91.9, -999.0
20-02-2022, 00:37:19,    217,    1.7,    5.6,   0.00,   0.00, 1006.2,   92.0, -999.0
20-02-2022, 00:37:29,    181,    1.0,    5.7,   0.00,   0.00, 1006.2,   91.8, -999.0
20-02-2022, 00:37:39,    213,    3.7,    5.7,   0.00,   0.00, 1006.3,   92.1, -999.0
20-02-2022, 00:37:48,    206,    4.1,    5.6,   0.00,   0.00, 1006.3,   92.0, -999.0
20-02-2022, 00:37:59,    203,    1.4,    5.7,   0.00,   0.00, 1006.3,   92.0, -999.0
20-02-2022, 00:38:09,    222,    1.8,    5.7,   0.00,   0.00, 1006.2,   92.0, -999.0
20-02-2022, 00:38:18,    169,    0.4,    5.6,   0.00,   0.00, 1006.1,   91.8, -999.0
20-02-2022, 00:38:28,    165,    1.0,    5.6,   0.00,   0.00, 1006.2,   92.0, -999.0
20-02-2022, 00:38:38,    198,    1.6,    5.7,   0.00,   0.00, 1006.2,   92.1, -999.0
20-02-2022, 00:38:48,    218,    2.9,    5.7,   0.00,   0.00, 1006.2,   92.1, -999.0
20-02-2022, 00:38:58,    186,    4.9,    5.7,   0.00,   0.00, 1006.2,   92.1, -999.0
20-02-2022, 00:39:08,    204,    4.4,    5.7,   0.00,   0.00, 1006.1,   92.1, -999.0
20-02-2022, 00:39:18,    231,    4.1,    5.7,   0.00,   0.00, 1006.2,   92.2, -999.0
20-02-2022, 00:39:28,    190,    4.5,    5.7,   0.00,   0.00, 1006.2,   92.2, -999.0
20-02-2022, 00:39:38,    205,    2.0,    5.7,   0.00,   0.00, 1006.2,   92.2, -999.0
20-02-2022, 00:39:48,    196,    1.2,    5.7,   0.00,   0.00, 1006.1,   92.2, -999.0
20-02-2022, 00:39:58,    218,    1.9,    5.7,   0.00,   0.00, 1006.2,   92.2, -999.0
20-02-2022, 00:40:08,    178,    0.7,    5.7,   0.00,   0.00, 1006.1,   92.2, -999.0
20-02-2022, 00:40:18,    205,    1.2,    5.7,   0.00,   0.00, 1006.1,   92.2, -999.0
20-02-2022, 00:40:28,    199,    0.6,    5.7,   0.00,   0.00, 1006.1,   92.2, -999.0
20-02-2022, 00:40:38,    195,    3.2,    5.7,   0.00,   0.00, 1006.1,   92.2, -999.0
20-02-2022, 00:40:48,    203,    1.4,    5.7,   0.00,   0.00, 1006.1,   92.2, -999.0
20-02-2022, 00:40:57,    203,    0.0,    5.6,   0.00,   0.00, 1006.0,   92.0, -999.0
20-02-2022, 00:41:08,    201,    0.4,    5.7,   0.00,   0.00, 1006.0,   92.3, -999.0
20-02-2022, 00:41:18,    187,    0.2,    5.7,   0.00,   0.00, 1006.0,   92.1, -999.0
20-02-2022, 00:41:27,    186,    0.0,    5.6,   0.00,   0.00, 1006.0,   92.0, -999.0
20-02-2022, 00:41:38,    187,    0.0,    5.7,   0.00,   0.00, 1006.0,   91.9, -999.0
20-02-2022, 00:41:48,    241,    3.1,    5.7,   0.00,   0.00, 1006.1,   92.2, -999.0
20-02-2022, 00:41:57,    230,    4.6,    5.8,   0.00,   0.00, 1006.1,   92.4, -999.0
20-02-2022, 00:42:07,    222,    4.3,    5.8,   0.00,   0.00, 1006.1,   92.4, -999.0
20-02-2022, 00:42:17,    168,    0.9,    5.8,   0.00,   0.00, 1006.1,   92.4, -999.0
20-02-2022, 00:42:27,    172,    0.1,    5.7,   0.00,   0.00, 1006.0,   92.4, -999.0
20-02-2022, 00:42:37,    218,    0.5,    5.7,   0.00,   0.00, 1006.0,   92.3, -999.0
20-02-2022, 00:42:47,    211,    0.1,    5.8,   0.00,   0.00, 1006.0,   92.2, -999.0
20-02-2022, 00:42:57,    211,    2.5,    5.7,   0.00,   0.00, 1006.0,   92.4, -999.0
20-02-2022, 00:43:07,    199,    4.1,    5.7,   0.00,   0.00, 1006.0,   92.5, -999.0
20-02-2022, 00:43:17,    213,    1.5,    5.8,   0.00,   0.00, 1005.9,   92.5, -999.0
20-02-2022, 00:43:27,    216,    1.1,    5.7,   0.00,   0.00, 1005.9,   92.5, -999.0
20-02-2022, 00:43:37,    201,    3.9,    5.8,   0.00,   0.00, 1006.0,   92.5, -999.0
20-02-2022, 00:43:47,    218,    2.2,    5.8,   0.00,   0.00, 1006.0,   92.6, -999.0
20-02-2022, 00:43:57,    208,    0.3,    5.7,   0.00,   0.00, 1005.9,   92.4, -999.0
20-02-2022, 00:44:07,    223,    3.1,    5.8,   0.00,   0.00, 1005.9,   92.7, -999.0
20-02-2022, 00:44:17,    219,    2.9,    5.8,   0.00,   0.00, 1005.9,   92.6, -999.0
20-02-2022, 00:44:27,    207,    0.9,    5.8,   0.00,   0.00, 1005.9,   92.6, -999.0
20-02-2022, 00:44:36,    201,    3.9,    5.8,   0.00,   0.00, 1005.9,   92.6, -999.0
20-02-2022, 00:44:47,    213,    4.9,    5.8,   0.00,   0.00, 1005.9,   92.7, -999.0
20-02-2022, 00:44:57,    220,    3.0,    5.8,   0.00,   0.00, 1005.9,   92.7, -999.0
20-02-2022, 00:45:06,    261,    2.0,    5.8,   0.00,   0.00, 1005.9,   92.9, -999.0
20-02-2022, 00:45:16,    171,    1.8,    5.8,   0.00,   0.00, 1005.9,   92.7, -999.0
20-02-2022, 00:45:26,    178,    5.1,    5.8,   0.00,   0.00, 1005.9,   92.8, -999.0
20-02-2022, 00:45:36,    235,    3.5,    5.8,   0.00,   0.00, 1005.9,   92.9, -999.0
20-02-2022, 00:45:46,    225,    1.3,    5.8,   0.00,   0.00, 1005.9,   92.9, -999.0
20-02-2022, 00:45:56,    210,    1.0,    5.8,   0.00,   0.00, 1005.8,   92.8, -999.0
20-02-2022, 00:46:06,    158,    3.6,    5.8,   0.00,   0.00, 1005.9,   92.9, -999.0
20-02-2022, 00:46:16,    196,    3.8,    5.8,   0.00,   0.00, 1005.9,   92.9, -999.0
20-02-2022, 00:46:26,    237,    2.0,    5.8,   0.00,   0.00, 1005.9,   92.9, -999.0
20-02-2022, 00:46:36,    199,    4.9,    5.8,   0.00,   0.00, 1005.9,   92.9, -999.0